When you browse on this site, cookies collect data to enhance your experience and personalize the content and advertising you see.
Visit our Privacy Policy to learn more. By continuing to use the site, you agree to this use of cookies and data.
  • In Hungary
  • List of Countries
  • For 7 days
  • Water Temperature
  • Satellite Maps
  • Weather Map
  • News
  • Weather Widgets
  • user-avatar
    Login

    Hourly Weather Zerkowice

    Today, 27 May, Monday

    Time Temperature Precipitation Wind Pressure Humidity
    00:00 +14°C° 0 mm 2 mps 731 mmHg 90%
    01:00 +14°C° 0 mm 2 mps 731 mmHg 91%
    02:00 +13°C° 0 mm 2 mps 730 mmHg 91%
    03:00 +13°C° 0 mm 2 mps 730 mmHg 91%
    04:00 +13°C° 0 mm 2 mps 730 mmHg 91%
    05:00 +15°C° 0 mm 2 mps 730 mmHg 87%
    06:00 +17°C° 0 mm 2 mps 730 mmHg 83%
    07:00 +18°C° 0 mm 2 mps 730 mmHg 79%
    08:00 +20°C° 0.2 mm 2 mps 730 mmHg 73%
    09:00 +21°C° 0.2 mm 3 mps 730 mmHg 67%
    10:00 +24°C° 0.2 mm 3 mps 730 mmHg 61%
    11:00 +25°C° 0.2 mm 3 mps 730 mmHg 59%
    12:00 +25°C° 0.2 mm 2 mps 730 mmHg 57%
    13:00 +26°C° 0.2 mm 2 mps 729 mmHg 55%
    14:00 +25°C° 0.3 mm 2 mps 729 mmHg 58%
    15:00 +25°C° 0.3 mm 2 mps 729 mmHg 61%
    16:00 +25°C° 0.3 mm 2 mps 728 mmHg 64%
    17:00 +23°C° 0.2 mm 2 mps 728 mmHg 68%
    18:00 +21°C° 0.2 mm 2 mps 728 mmHg 72%
    19:00 +21°C° 0.2 mm 1 mps 728 mmHg 76%
    20:00 +20°C° 0.4 mm 1 mps 727 mmHg 80%
    21:00 +19°C° 0.4 mm 1 mps 727 mmHg 84%
    22:00 +17°C° 0.4 mm 2 mps 727 mmHg 88%
    23:00 +18°C° 0.5 mm 1 mps 727 mmHg 89%

    Tomorrow, 28 May, Tuesday

    Time Temperature Precipitation Wind Pressure Humidity
    00:00 +18°C° 0.5 mm 1 mps 726 mmHg 91%
    01:00 +16°C° 0.5 mm 1 mps 726 mmHg 93%
    02:00 +16°C° 0.1 mm 1 mps 726 mmHg 93%
    03:00 +15°C° 0.1 mm 1 mps 725 mmHg 94%
    04:00 +15°C° 0.1 mm 1 mps 725 mmHg 94%
    05:00 +16°C° 0 mm 1 mps 725 mmHg 91%
    06:00 +18°C° 0 mm 2 mps 725 mmHg 87%
    07:00 +19°C° 0 mm 2 mps 725 mmHg 83%
    08:00 +20°C° 0 mm 2 mps 725 mmHg 76%
    09:00 +22°C° 0 mm 3 mps 725 mmHg 70%
    10:00 +24°C° 0 mm 3 mps 725 mmHg 64%
    11:00 +22°C° 0.4 mm 3 mps 724 mmHg 68%
    12:00 +22°C° 0.4 mm 3 mps 724 mmHg 73%
    13:00 +21°C° 0.4 mm 2 mps 724 mmHg 77%
    14:00 +22°C° 0.7 mm 1 mps 724 mmHg 74%
    15:00 +22°C° 0.7 mm 1 mps 724 mmHg 72%
    16:00 +21°C° 0.7 mm 0 mps 723 mmHg 69%
    17:00 +21°C° 1.7 mm 1 mps 724 mmHg 74%
    18:00 +19°C° 1.7 mm 2 mps 724 mmHg 78%
    19:00 +17°C° 1.7 mm 2 mps 724 mmHg 83%
    20:00 +16°C° 0.2 mm 2 mps 724 mmHg 87%
    21:00 +16°C° 0.2 mm 3 mps 725 mmHg 90%
    22:00 +14°C° 0.2 mm 3 mps 725 mmHg 94%
    23:00 +13°C° 0.1 mm 3 mps 726 mmHg 94%

    Day after tomorrow, 29 May, Wednesday

    Time Temperature Precipitation Wind Pressure Humidity
    00:00 +13°C° 0.1 mm 3 mps 726 mmHg 95%
    01:00 +13°C° 0.1 mm 3 mps 726 mmHg 96%
    02:00 +13°C° 0.1 mm 4 mps 727 mmHg 96%
    03:00 +12°C° 0.1 mm 4 mps 727 mmHg 95%
    04:00 +12°C° 0.1 mm 4 mps 728 mmHg 95%
    05:00 +11°C° 0.3 mm 4 mps 728 mmHg 94%
    06:00 +9°C° 0.3 mm 5 mps 729 mmHg 93%
    07:00 +9°C° 0.3 mm 5 mps 729 mmHg 92%
    08:00 +10°C° 0.3 mm 4 mps 730 mmHg 91%
    09:00 +10°C° 0.3 mm 4 mps 730 mmHg 90%
    10:00 +10°C° 0.3 mm 3 mps 731 mmHg 89%
    11:00 +11°C° 0.2 mm 3 mps 731 mmHg 87%
    12:00 +11°C° 0.2 mm 3 mps 731 mmHg 85%
    13:00 +12°C° 0.2 mm 3 mps 731 mmHg 84%
    14:00 +12°C° 0 mm 3 mps 732 mmHg 81%
    15:00 +13°C° 0 mm 3 mps 732 mmHg 79%
    16:00 +13°C° 0 mm 3 mps 732 mmHg 77%
    17:00 +14°C° 0.1 mm 2 mps 732 mmHg 78%
    18:00 +14°C° 0.1 mm 2 mps 732 mmHg 80%
    19:00 +13°C° 0.1 mm 2 mps 732 mmHg 82%
    20:00 +13°C° 0.2 mm 2 mps 732 mmHg 84%
    21:00 +12°C° 0.2 mm 2 mps 732 mmHg 85%
    22:00 +10°C° 0.2 mm 2 mps 733 mmHg 87%
    23:00 +10°C° 1.2 mm 2 mps 733 mmHg 90%

    30 May, Thursday

    Time Temperature Precipitation Wind Pressure Humidity
    00:00 +10°C° 1.2 mm 2 mps 733 mmHg 92%
    01:00 +10°C° 1.2 mm 2 mps 733 mmHg 94%
    02:00 +10°C° 3.3 mm 2 mps 733 mmHg 95%
    03:00 +10°C° 3.3 mm 2 mps 733 mmHg 96%
    04:00 +9°C° 3.3 mm 2 mps 733 mmHg 96%
    05:00 +9°C° 2.5 mm 3 mps 733 mmHg 96%
    06:00 +9°C° 2.5 mm 3 mps 733 mmHg 96%
    07:00 +8°C° 2.5 mm 4 mps 734 mmHg 96%
    08:00 +8°C° 0.4 mm 4 mps 734 mmHg 95%
    09:00 +9°C° 0.4 mm 3 mps 734 mmHg 94%
    10:00 +9°C° 0.4 mm 3 mps 734 mmHg 93%
    11:00 +10°C° 0 mm 3 mps 734 mmHg 91%
    12:00 +10°C° 0 mm 3 mps 734 mmHg 89%
    13:00 +12°C° 0 mm 2 mps 734 mmHg 87%
    14:00 +12°C° 0 mm 2 mps 734 mmHg 85%
    15:00 +13°C° 0 mm 2 mps 734 mmHg 83%
    16:00 +14°C° 0 mm 1 mps 734 mmHg 81%
    17:00 +13°C° 0 mm 1 mps 734 mmHg 84%
    18:00 +13°C° 0 mm 1 mps 734 mmHg 86%
    19:00 +11°C° 0 mm 0 mps 734 mmHg 89%
    20:00 +10°C° 0 mm 0 mps 734 mmHg 91%
    21:00 +9°C° 0 mm 0 mps 734 mmHg 92%
    22:00 +9°C° 0 mm 1 mps 734 mmHg 94%
    23:00 +9°C° 0 mm 1 mps 734 mmHg 94%

    31 May, Friday

    Time Temperature Precipitation Wind Pressure Humidity
    00:00 +9°C° 0 mm 1 mps 733 mmHg 94%
    01:00 +9°C° 0 mm 1 mps 733 mmHg 94%
    02:00 +8°C° 0 mm 1 mps 733 mmHg 94%
    03:00 +8°C° 0 mm 1 mps 733 mmHg 94%
    04:00 +8°C° 0 mm 1 mps 732 mmHg 94%
    05:00 +10°C° 0 mm 1 mps 732 mmHg 89%
    06:00 +12°C° 0 mm 1 mps 732 mmHg 84%
    07:00 +14°C° 0 mm 1 mps 732 mmHg 79%
    08:00 +16°C° 0 mm 1 mps 732 mmHg 73%
    09:00 +18°C° 0 mm 1 mps 731 mmHg 66%
    10:00 +20°C° 0 mm 1 mps 731 mmHg 60%
    11:00 +21°C° 0 mm 1 mps 731 mmHg 59%
    12:00 +22°C° 0 mm 1 mps 730 mmHg 57%
    13:00 +23°C° 0 mm 1 mps 730 mmHg 55%
    14:00 +19°C° 0.9 mm 4 mps 731 mmHg 66%
    15:00 +16°C° 0.9 mm 8 mps 731 mmHg 76%
    16:00 +12°C° 0.9 mm 11 mps 732 mmHg 86%
    17:00 +9°C° 0.2 mm 10 mps 733 mmHg 87%
    18:00 +7°C° 0.2 mm 9 mps 734 mmHg 88%
    19:00 +5°C° 0.2 mm 8 mps 735 mmHg 89%
    20:00 +5°C° 0.2 mm 6 mps 736 mmHg 88%
    21:00 +6°C° 0.2 mm 4 mps 737 mmHg 88%
    22:00 +7°C° 0.2 mm 3 mps 738 mmHg 87%
    23:00 +5°C° 0 mm 3 mps 738 mmHg 86%

    1 June, Saturday

    Time Temperature Precipitation Wind Pressure Humidity
    00:00 +5°C° 0 mm 4 mps 738 mmHg 84%
    01:00 +5°C° 0 mm 4 mps 738 mmHg 82%
    02:00 +4°C° 0 mm 4 mps 738 mmHg 83%
    03:00 +4°C° 0 mm 4 mps 739 mmHg 84%
    04:00 +3°C° 0 mm 3 mps 739 mmHg 84%
    05:00 +4°C° 0 mm 4 mps 739 mmHg 81%
    06:00 +6°C° 0 mm 4 mps 739 mmHg 79%
    07:00 +7°C° 0 mm 5 mps 740 mmHg 76%
    08:00 +8°C° 0 mm 5 mps 740 mmHg 70%
    09:00 +9°C° 0 mm 5 mps 740 mmHg 64%
    10:00 +12°C° 0 mm 5 mps 740 mmHg 58%
    11:00 +12°C° 0 mm 5 mps 740 mmHg 58%
    12:00 +13°C° 0 mm 5 mps 740 mmHg 58%
    13:00 +14°C° 0 mm 6 mps 740 mmHg 57%
    14:00 +13°C° 0 mm 5 mps 740 mmHg 61%
    15:00 +13°C° 0 mm 5 mps 740 mmHg 65%
    16:00 +12°C° 0 mm 5 mps 740 mmHg 69%
    17:00 +10°C° 0 mm 5 mps 740 mmHg 72%
    18:00 +11°C° 0 mm 4 mps 740 mmHg 75%
    19:00 +10°C° 0 mm 3 mps 740 mmHg 79%
    20:00 +9°C° 0 mm 3 mps 740 mmHg 81%
    21:00 +8°C° 0 mm 3 mps 741 mmHg 83%
    22:00 +7°C° 0 mm 3 mps 741 mmHg 85%
    23:00 +7°C° 0 mm 3 mps 741 mmHg 86%
    Show more